209  
ASUS44 KBMX 290310  
RWRAL  
 
ALABAMA REGIONAL WEATHER ROUNDUP  
NATIONAL WEATHER SERVICE BIRMINGHAM AL  
1000 PM CDT FRI APR 28 2017  
 
NOTE: "FAIR" INDICATES FEW OR NO CLOUDS BELOW 12,000 FEET  
WITH NO SIGNIFICANT WEATHER AND/OR S TO VISIBILITY
.  
 
THE REMARK "TC" DENOTES TEMPERATURE IN DEGREES CELSIUS.  
 
ALZ001>011-014-016>018-020-290400-  
NORTH ALABAMA  
 
CITY SKY/WX TMP DP RH WIND PRES REMARKS
 
MUSCLE SHOALS CLEAR 78 65 63 S9 29.97R  
HUNTSVILLE PTCLDY 77 68 73 S8 29.99R  
DECATUR CLEAR 74 68 81 S9 29.98R  
HALEYVILLE FAIR 75 67 76 S12 30.00R  
GADSDEN PTCLDY N/A N/A N/A S8 30.02R  

 
 
ALZ012-013-022-023-030>036-040>044-290400-  
WEST CENTRAL ALABAMA  
 
CITY SKY/WX TMP DP RH WIND PRES REMARKS
 
TUSCALOOSA MOCLDY 79 70 74 S8 29.99R  

 
 
ALZ015-024>027-033>036-040>044-290400-  
CENTRAL ALABAMA  
 
CITY SKY/WX TMP DP RH WIND PRES REMARKS
 
BIRMINGHAM PTCLDY 79 67 66 S8 30.04R  
MONTGOMERY CLEAR 77 67 71 SE5 30.03R  
SHELBY CO ARPT PTCLDY 78 69 73 SE6 30.02R  
MAXWELL AFB CLEAR 76 70 80 S7 30.03R  
GREENVILLE FAIR 76 68 76 VRB5 30.03R  

 
 
ALZ019-021-028-029-037-038-045>048-290400-  
EAST CENTRAL ALABAMA  
 
CITY SKY/WX TMP DP RH WIND PRES REMARKS
 
ANNISTON CLOUDY 80 68 66 S10 30.04R  
ALEXANDER CITY PTCLDY 76 68 78 CALM 30.06R  
AUBURN PTCLDY 77 68 73 S7 30.09R  

 
 
ALZ051>064-290400-  
SOUTHWEST ALABAMA  
 
CITY SKY/WX TMP DP RH WIND PRES REMARKS
 
MOBILE CLOUDY 77 73 87 SE18 30.01R  
BROOKLEY FIELD CLOUDY 78 75 90 SE15 30.02R  
EVERGREEN MOCLDY 75 70 84 S10 30.04R  

 
 
ALZ049-050-065>069-290400-  
SOUTHEAST ALABAMA  
 
CITY SKY/WX TMP DP RH WIND PRES REMARKS
 
DOTHAN PTCLDY 76 69 79 SE6 30.10R  
OZARK PTCLDY 76 70 82 S3 30.06R  
TROY CLEAR 73 70 90 SE5 30.06R  
EUFAULA FAIR 78 70 76 SE3 30.05R  

 
 
 
CLICK HERE TO GO TO PREVIOUS BULLETINS.

The Nexlab AL Page Main Text Page